Temperature
20 19 19 19 18 18 20 22 23 25 25 25 25 24 23 22 22 21 21 21 21 21 20 20 20 20 20 20 20 20 20 20 20 20 20 20 20 19 19 19 19 19 19 19 19 19 19 19 18
20 19 19 19 18 20 21 23 24 25 26 26 25 24 22 20 21 21 21 21 21 21 20 20 20 20 20 20 20 20 20 20 20 20 20 19 19 19 19 19 19 19 19 19 19 19 19 18 18
20 19 19 17 19 20 23 25 25 26 26 26 25 24 22 21 22 22 22 21 21 21 20 20 20 20 20 20 20 20 20 20 19 19 19 19 19 19 19 19 19 19 19 19 19 18 18 18 18
19 19 19 17 19 20 23 25 25 26 26 26 25 23 22 21 22 23 22 22 21 21 20 20 20 20 20 20 20 20 20 19 19 19 19 19 19 19 19 19 19 19 19 18 18 18 18 18 18
19 19 18 18 19 21 23 25 26 25 24 24 23 21 20 21 22 22 22 22 21 21 20 20 20 20 20 20 20 20 19 19 19 19 19 19 19 19 18 18 18 18 18 18 18 18 18 18 18
19 18 18 19 21 24 24 25 25 24 24 24 23 20 20 20 22 22 22 21 21 21 20 20 20 20 20 20 20 20 19 19 19 19 19 19 19 18 18 18 18 18 18 18 18 18 18 18 18
20 17 19 21 22 24 24 24 23 23 23 23 22 20 19 19 21 21 21 21 21 20 20 20 20 20 20 20 20 19 19 19 19 19 19 19 18 18 18 18 18 18 18 18 18 18 18 18 18
21 17 20 21 23 24 24 24 23 22 22 22 22 20 19 19 20 21 21 21 20 20 20 20 20 20 20 20 20 19 19 19 19 19 19 19 18 18 18 18 18 18 18 18 18 18 18 18 18
21 18 19 22 23 24 24 23 22 22 21 20 20 21 20 20 20 20 20 20 20 20 20 20 20 20 20 20 19 19 19 19 19 19 19 18 18 18 18 18 18 18 18 18 18 18 18 18 18
21 18 20 22 24 24 23 22 21 21 20 19 19 20 20 20 20 20 20 20 20 20 19 19 19 19 19 19 19 19 19 18 18 18 18 18 18 18 18 18 18 18 18 17 17 17 17 17 18
20 19 21 22 24 23 22 20 20 20 19 18 18 18 19 19 19 19 19 19 19 19 19 19 19 19 19 18 18 18 18 18 18 18 18 17 17 17 17 17 17 17 17 17 17 17 17 17 17
20 21 22 23 23 22 21 19 18 18 18 18 18 18 18 18 19 19 19 19 19 19 19 19 19 19 18 18 18 18 18 18 17 17 17 17 17 17 17 17 17 17 17 17 17 17 17 17 17
21 22 22 21 21 20 19 18 17 17 17 18 18 18 18 18 19 18 18 18 18 18 18 19 18 18 18 18 18 18 17 17 17 17 17 17 17 17 17 17 17 17 17 17 16 16 17 17 17
22 21 21 20 20 19 18 18 18 17 17 17 18 18 18 18 18 18 18 18 18 18 18 18 18 18 18 17 17 17 17 17 17 17 17 16 16 16 16 16 16 16 16 16 16 16 16 16 16
23 21 20 20 20 19 19 18 17 17 17 17 17 17 17 17 18 18 18 18 17 17 17 17 17 17 17 17 17 17 17 17 17 17 16 16 16 16 16 16 16 16 16 16 16 16 16 16 16
22 20 20 20 19 19 19 17 17 17 17 17 17 17 17 17 17 17 17 17 17 17 17 18 18 18 17 17 17 17 17 17 17 16 16 16 16 15 15 15 15 15 15 15 15 15 15 15 15
20 20 20 20 19 19 18 17 17 17 17 16 17 17 17 17 17 17 17 17 18 18 18 18 18 18 17 17 17 17 16 16 16 16 15 15 15 15 14 14 14 14 14 14 15 15 15 15 15
21 20 20 19 19 18 17 16 16 16 16 16 16 17 17 17 17 17 18 18 18 18 18 18 17 17 17 17 16 16 16 16 15 15 15 14 14 14 14 14 14 14 14 14 14 14 14 14 14
21 20 19 19 19 18 17 17 16 16 16 16 16 17 17 17 17 17 18 18 18 18 18 17 17 17 17 16 16 16 15 15 14 14 14 13 13 13 13 13 13 13 13 13 13 13 13 14 14
21 20 19 19 19 18 17 17 17 16 16 16 16 17 17 17 17 18 18 18 18 18 18 17 17 17 16 16 15 15 14 14 13 13 13 13 12 12 13 13 13 13 13 13 13 13 13 13 13
21 20 19 18 18 17 18 17 17 16 16 17 17 17 18 18 18 18 18 18 18 18 18 17 17 16 16 15 15 14 14 13 13 13 12 12 12 12 12 12 12 12 12 12 12 12 12 13 13
21 21 20 19 17 16 17 17 17 16 16 16 17 18 18 18 19 19 19 18 18 18 17 17 16 16 15 15 14 14 13 13 12 12 12 11 11 11 11 11 11 11 12 12 12 12 12 12 12
20 20 19 18 17 16 16 16 16 16 17 17 17 18 18 19 19 19 19 19 18 18 17 17 16 16 15 14 14 13 13 12 12 11 11 11 11 11 11 11 11 11 11 11 11 11 11 12 12
19 19 17 15 15 17 16 16 16 15 17 17 17 18 19 19 19 19 19 19 18 18 17 17 16 16 15 14 13 13 12 12 11 11 11 11 11 10 10 10 10 10 10 10 11 11 11 11 11
19 18 17 17 16 16 16 15 16 17 17 17 18 19 19 19 19 19 19 19 18 18 17 17 16 15 14 14 13 12 12 11 11 11 10 10 10 10 10 10 10 10 10 10 10 10 10 10 11
19 19 18 19 17 16 16 16 16 18 18 18 19 19 20 20 20 19 19 19 18 18 17 17 16 15 14 13 12 12 11 11 11 10 10 10 10 10 10 9 9 9 9 9 9 9 9 10 10
20 18 17 16 16 16 16 16 17 18 18 18 18 19 20 20 20 20 19 19 18 18 17 16 15 14 13 13 12 11 11 11 10 10 10 10 10 9 9 9 9 9 9 9 8 9 9 9 9
20 16 15 16 17 18 18 17 17 18 18 18 18 19 20 20 20 19 19 18 18 17 16 15 15 14 13 12 12 11 11 11 10 10 10 10 9 9 9 9 9 9 8 8 8 8 8 8 8
21 18 15 14 15 16 17 17 17 17 18 17 18 20 20 20 20 19 19 18 17 17 16 15 14 13 13 12 11 11 11 10 10 10 10 9 9 9 9 9 9 9 8 8 8 8 8 8 8
22 20 16 18 17 15 16 16 18 17 17 18 19 20 20 20 20 19 18 18 17 16 15 15 14 13 12 12 11 11 10 10 10 10 9 9 9 9 9 8 8 8 8 8 8 8 8 8 8
Wind_Speed
18 13 4 2 2 1 5 5 4 3 2 2 6 7 7 5 3 4 3 10 14 13 13 15 15 16 16 17 17 17 16 16 16 15 15 15 15 14 14 13 13 12 11 11 10 9 9 9 9
12 6 3 3 2 2 5 4 3 3 3 4 6 6 7 6 4 7 6 10 15 12 13 14 15 15 15 15 16 16 15 15 14 14 14 14 13 13 12 12 12 11 11 10 9 9 9 9 9
9 3 4 3 1 3 6 4 3 1 2 2 4 5 5 4 5 6 8 15 14 11 12 15 16 15 14 14 14 14 14 13 13 12 12 12 12 11 11 10 10 10 9 9 9 8 8 8 9
5 3 4 2 4 6 6 8 4 0 4 5 4 6 5 4 3 8 15 16 15 10 12 15 16 15 14 13 13 13 13 12 12 11 11 11 10 10 10 9 9 9 9 9 8 8 8 8 8
3 4 3 2 6 6 6 7 2 2 3 5 5 5 5 6 10 15 15 16 14 10 10 13 15 14 13 12 12 12 11 11 11 10 10 10 10 10 10 9 9 9 9 9 9 9 9 9 8
4 4 3 3 6 6 4 6 4 6 5 5 5 4 4 5 10 12 13 13 12 10 8 11 13 13 12 11 11 10 10 10 10 10 10 10 10 10 10 10 10 10 10 10 10 10 9 9 9
4 4 3 4 5 5 5 6 7 5 6 5 3 5 4 6 8 11 11 11 10 8 7 7 9 10 10 9 9 9 9 9 9 9 9 9 9 10 10 10 10 11 11 11 11 11 11 11 11
5 4 2 3 3 4 5 4 5 7 4 4 4 5 5 7 11 11 11 10 9 7 5 5 5 5 5 5 7 7 7 7 7 8 8 9 9 10 10 10 10 11 12 12 12 13 13 13 13
4 4 2 4 3 2 3 5 5 6 7 6 6 4 9 15 13 12 11 9 7 7 4 4 4 3 3 3 4 5 6 6 7 7 8 9 8 8 8 9 11 12 13 13 13 14 15 14 14
5 4 8 6 4 2 2 5 5 6 8 7 8 12 15 14 11 11 10 8 6 5 4 3 3 2 1 1 1 1 2 3 4 6 7 7 6 7 8 9 12 12 13 13 13 14 15 14 12
7 7 6 6 5 3 3 5 6 6 8 5 7 12 12 12 9 9 8 7 6 5 4 4 2 3 2 2 3 2 2 3 4 5 6 6 5 5 6 6 7 8 9 9 10 11 11 11 10
6 6 4 4 1 3 5 6 7 9 7 7 8 9 11 11 9 7 8 7 7 7 6 5 4 4 4 3 2 3 3 3 3 4 4 4 3 3 3 3 4 4 5 6 6 6 8 10 12
5 2 3 5 10 11 14 11 9 8 9 10 11 11 10 9 8 7 7 7 8 8 7 5 5 5 4 4 3 4 4 3 4 4 4 3 1 2 2 2 3 3 4 4 4 5 6 6 8
2 5 6 7 9 6 12 8 6 5 7 10 10 9 8 8 8 7 7 7 7 6 6 5 5 5 5 4 3 3 3 4 4 5 6 5 2 2 1 2 2 3 4 4 4 5 5 5 5
3 5 6 5 5 4 8 8 4 4 6 9 9 9 8 6 6 7 6 6 6 5 5 4 5 4 5 5 3 3 4 5 5 5 7 6 4 3 2 2 2 3 4 4 4 4 4 5 5
4 5 3 2 3 2 6 4 3 3 6 7 8 8 8 5 5 5 6 6 5 5 4 4 5 5 5 4 3 3 4 5 5 6 7 7 6 4 3 2 3 4 4 3 3 3 3 4 5
5 3 2 1 2 2 4 5 5 2 4 5 6 7 7 6 5 4 5 6 6 6 5 4 4 4 4 4 3 4 4 4 4 5 6 7 7 5 2 2 3 4 3 3 3 2 2 4 5
3 3 3 2 1 4 4 4 4 3 3 4 4 5 6 7 7 6 6 6 5 5 4 4 3 3 3 3 3 3 3 3 4 5 5 7 7 6 4 2 3 3 2 3 3 3 3 3 5
5 5 4 1 1 3 4 5 5 4 3 4 4 5 6 6 5 6 6 6 5 5 4 4 4 3 2 1 1 2 2 3 3 4 6 7 7 7 5 3 3 3 2 3 3 3 3 3 2
4 5 3 3 3 3 3 2 3 4 4 5 5 5 5 5 5 6 7 7 7 7 6 5 5 4 2 1 1 1 1 2 2 3 5 7 8 7 5 4 4 3 2 3 3 2 2 2 2
3 4 5 5 3 5 2 1 1 1 2 4 5 5 5 8 8 8 8 9 8 8 8 6 6 4 3 2 1 1 2 3 3 3 3 5 7 7 6 5 3 3 2 2 3 2 2 2 2
1 2 7 7 5 4 4 1 3 1 3 4 6 6 7 7 8 8 8 8 9 9 6 6 6 5 4 3 2 2 1 2 3 3 3 5 6 6 6 5 4 3 2 2 3 1 1 1 2
4 7 9 6 5 4 5 2 6 2 3 5 6 7 7 8 8 9 9 9 7 6 6 6 6 5 4 3 3 3 3 3 3 3 5 5 5 5 6 5 3 3 2 3 3 2 1 1 2
8 7 7 6 5 3 2 1 5 4 6 5 5 7 8 8 8 7 6 5 4 4 4 5 5 5 4 3 3 4 5 5 5 5 5 5 4 4 5 5 3 3 3 3 3 3 3 2 3
5 6 5 5 4 3 1 1 8 7 7 7 7 7 7 6 6 6 6 6 6 6 5 5 5 4 4 4 5 5 6 6 6 6 5 5 4 4 6 4 4 4 4 4 3 3 3 3 3
4 7 6 4 4 3 2 4 7 6 6 6 7 6 5 5 6 7 8 7 7 7 6 5 5 5 5 5 6 5 6 5 5 6 5 6 5 6 7 6 6 6 5 5 4 3 4 3 4
6 3 5 7 3 1 4 6 8 4 4 5 5 5 6 6 6 7 7 7 6 6 6 6 6 6 6 6 6 6 6 6 6 6 6 5 6 6 7 6 7 7 6 6 5 4 5 4 5
5 9 6 6 4 1 4 5 5 7 8 7 6 7 7 5 6 6 6 5 4 4 4 4 5 6 6 6 6 5 6 6 6 5 7 7 7 7 7 8 8 7 7 6 5 5 6 6 6
4 5 6 5 5 5 3 7 7 10 9 9 10 8 8 8 8 6 5 3 3 3 4 4 5 5 6 6 6 6 6 6 6 6 7 7 7 7 8 8 8 8 8 7 6 7 7 7 7
2 5 7 5 3 4 4 8 6 8 9 9 9 7 7 8 6 4 3 3 3 4 5 5 6 6 7 6 6 6 6 6 6 7 8 7 8 8 8 8 9 9 9 8 8 9 9 8 9
Wind_Direction
138 134 120 88 57 11 273 258 250 293 1 38 72 83 88 75 97 133 106 128 130 137 146 147 145 141 138 135 133 132 132 132 133 135 138 142 146 151 155 159 161 163 162 159 156 151 147 144 141
136 134 83 72 70 325 280 260 279 261 164 133 83 83 77 72 83 109 123 134 134 135 139 146 146 143 141 139 137 136 137 138 140 143 146 149 153 157 161 164 167 169 168 166 164 162 158 154 151
147 127 96 86 163 234 271 272 283 13 53 53 73 62 76 98 125 130 140 137 130 130 136 149 149 148 147 146 144 143 143 145 147 151 154 158 161 165 169 173 176 178 178 177 176 175 170 165 163
139 75 69 72 256 244 252 272 268 135 32 33 79 61 56 37 120 131 135 136 130 125 135 150 150 151 152 152 151 151 151 154 157 161 165 169 173 177 181 185 189 191 192 192 191 190 184 180 177
80 91 68 314 264 257 265 278 232 102 64 44 69 77 40 22 95 122 132 136 133 128 134 148 150 152 154 157 159 160 162 164 168 172 178 183 187 191 195 198 203 207 211 212 209 205 199 195 192
78 79 87 282 280 286 325 358 46 75 79 59 64 77 55 85 108 123 130 131 132 131 126 142 150 153 156 161 166 169 172 176 181 187 193 198 203 207 210 212 215 219 224 229 225 219 213 207 205
123 124 191 252 287 319 355 8 41 50 65 44 63 88 91 104 111 118 120 121 122 120 114 119 142 154 161 167 173 179 184 189 195 202 207 213 218 221 224 226 227 230 232 234 232 229 224 218 214
148 124 246 268 278 317 340 21 48 48 60 34 51 119 145 131 117 113 113 115 116 109 103 103 112 126 144 166 181 188 197 204 210 217 222 228 233 237 239 239 240 243 244 242 238 236 233 229 222
119 85 244 243 234 283 356 43 48 57 61 41 36 84 117 124 119 115 114 114 122 125 110 95 94 99 122 169 198 204 213 221 228 235 239 242 247 254 258 258 255 254 253 251 247 243 242 238 231
121 165 229 231 212 196 42 54 45 67 56 48 62 81 108 118 119 121 125 126 126 127 117 93 92 96 103 219 253 261 280 282 266 261 259 261 256 256 259 263 264 264 264 263 258 253 248 242 234
167 201 239 254 228 186 115 68 37 89 58 48 95 113 113 111 108 113 115 116 112 108 100 83 87 84 87 22 20 12 17 355 320 297 275 270 271 269 268 269 277 280 280 278 273 265 253 241 231
183 243 242 274 180 123 107 101 68 59 81 83 90 105 107 107 106 109 106 101 97 90 82 76 77 76 73 67 44 39 30 17 337 314 302 279 274 272 273 270 274 276 276 276 274 266 256 243 233
204 270 30 49 73 87 91 86 94 79 85 94 95 95 100 103 96 89 95 96 96 93 86 78 79 82 78 68 47 45 34 17 351 349 351 331 290 286 293 297 301 296 290 283 279 271 263 252 240
168 94 78 56 76 75 93 84 86 100 104 104 101 100 105 106 106 100 97 101 101 99 97 89 78 77 79 77 68 50 43 28 21 11 3 1 344 321 313 309 312 308 302 292 282 276 269 260 250
118 94 65 44 76 118 93 62 77 135 120 110 110 113 112 110 113 117 122 121 120 118 117 114 111 99 94 91 81 72 58 49 34 12 5 5 357 341 330 321 316 312 311 303 294 287 273 264 254
75 76 73 6 80 133 105 134 185 149 133 128 129 131 130 124 130 137 138 138 142 142 142 144 129 123 114 109 92 73 56 49 35 21 17 11 3 353 342 324 311 318 324 319 304 290 287 274 263
42 103 162 227 37 107 122 161 188 166 149 146 146 144 141 141 150 161 160 163 164 164 161 152 141 135 119 100 78 64 55 44 29 23 21 12 8 6 355 316 310 323 326 321 316 304 277 280 277
201 169 180 198 27 84 108 140 153 178 179 177 165 159 155 164 178 182 180 181 181 181 174 160 150 134 111 84 61 41 34 23 16 10 5 6 6 7 2 334 326 329 322 320 317 301 287 270 277
165 157 160 149 86 87 120 143 174 190 206 197 192 180 179 184 188 187 192 193 191 198 195 189 180 179 142 88 69 39 355 340 345 348 357 358 359 1 360 344 329 326 308 298 305 296 299 291 286
144 138 140 90 66 89 117 140 177 194 215 209 202 204 200 191 193 201 206 206 205 208 209 207 205 200 189 157 147 163 261 296 295 314 336 351 355 354 356 346 328 318 305 310 315 298 304 298 310
151 171 169 145 101 57 73 16 199 223 243 234 216 211 208 204 205 211 212 215 214 217 212 209 209 209 204 171 109 55 17 347 337 329 328 333 337 341 346 339 328 317 291 287 294 290 275 290 304
231 202 134 122 106 37 41 327 281 250 266 232 222 218 222 222 216 217 219 221 221 222 210 205 206 210 210 183 177 194 233 271 269 281 294 308 319 326 333 333 330 321 305 290 290 303 267 258 293
96 75 88 93 97 62 34 37 296 338 275 253 238 231 230 229 224 225 225 223 223 214 201 201 200 213 213 200 198 211 242 250 275 288 295 301 309 315 320 322 329 331 316 300 292 297 277 242 243
120 79 62 52 61 29 1 43 290 250 231 250 242 232 230 231 230 229 226 211 214 196 185 185 192 216 219 219 221 222 244 261 278 287 291 295 300 302 306 310 311 312 308 304 296 286 276 251 246
87 87 39 5 11 277 312 283 258 254 232 227 239 241 236 233 222 215 206 198 198 190 189 186 190 222 234 236 243 239 243 248 254 266 270 279 287 290 294 301 292 291 289 289 284 284 287 268 253
157 133 154 198 220 273 321 261 259 260 259 241 240 243 239 232 218 213 205 195 193 195 190 187 200 228 243 244 252 254 250 244 250 254 254 260 264 272 280 283 279 278 281 285 282 278 280 274 268
138 142 143 123 112 41 290 288 301 261 262 248 238 233 238 232 212 200 190 188 192 194 197 200 209 233 248 248 254 261 258 248 253 261 259 261 264 273 275 277 279 279 277 276 276 270 275 276 270
123 137 102 109 130 257 298 280 250 252 241 239 232 231 232 211 196 192 192 196 202 208 215 216 219 234 248 253 255 260 260 257 259 266 269 269 271 274 281 282 280 279 276 270 263 264 266 265 266
123 99 102 104 141 150 245 270 226 221 221 221 228 226 212 202 202 204 206 211 215 226 231 237 243 250 259 259 260 267 269 269 271 269 270 273 277 279 279 280 282 281 279 273 262 259 260 258 261
164 155 148 145 186 168 182 265 258 231 233 221 226 223 210 207 208 211 217 223 234 245 251 253 257 256 259 261 265 267 272 277 276 274 275 277 278 279 279 281 281 280 279 274 269 270 268 257 258
Height
1520 1523 1526 1529 1531 1534 1531 1518 1508 1502 1500 1499 1498 1498 1502 1506 1510 1517 1513 1514 1518 1522 1526 1529 1532 1535 1537 1539 1541 1543 1544 1545 1546 1547 1548 1549 1549 1550 1551 1552 1552 1553 1554 1555 1555 1556 1556 1557 1557
1521 1524 1528 1529 1533 1537 1527 1510 1505 1500 1499 1499 1500 1502 1503 1507 1508 1510 1512 1515 1519 1523 1527 1530 1534 1536 1539 1541 1543 1544 1545 1546 1547 1548 1549 1550 1550 1551 1552 1552 1553 1554 1554 1555 1556 1556 1557 1557 1558
1523 1526 1529 1530 1534 1534 1521 1505 1502 1499 1500 1500 1502 1504 1506 1509 1510 1511 1513 1516 1520 1524 1528 1532 1535 1537 1540 1542 1544 1545 1546 1547 1548 1549 1549 1550 1551 1551 1552 1553 1553 1554 1555 1556 1556 1557 1558 1558 1559
1524 1527 1529 1533 1533 1523 1512 1502 1500 1500 1501 1502 1504 1508 1510 1512 1513 1514 1515 1518 1521 1526 1530 1533 1536 1538 1541 1543 1544 1546 1547 1548 1549 1549 1550 1550 1551 1551 1552 1553 1553 1554 1555 1556 1556 1557 1558 1559 1559
1524 1526 1531 1535 1529 1515 1506 1500 1498 1499 1502 1505 1506 1510 1513 1514 1515 1516 1517 1520 1523 1527 1531 1534 1537 1540 1542 1543 1545 1546 1548 1548 1549 1549 1550 1550 1551 1551 1552 1552 1553 1554 1554 1555 1556 1557 1558 1559 1559
1524 1526 1535 1536 1524 1510 1504 1501 1499 1501 1505 1507 1510 1512 1516 1517 1517 1518 1519 1522 1526 1529 1532 1535 1538 1540 1542 1544 1545 1547 1548 1549 1549 1550 1550 1550 1550 1551 1551 1552 1552 1553 1553 1554 1555 1556 1557 1558 1559
1524 1528 1532 1528 1522 1512 1506 1503 1503 1506 1508 1510 1512 1515 1518 1519 1520 1520 1522 1525 1528 1531 1534 1537 1539 1541 1543 1544 1546 1547 1548 1549 1549 1549 1550 1550 1550 1550 1550 1551 1551 1552 1552 1553 1554 1555 1556 1557 1558
1522 1526 1528 1526 1520 1514 1507 1506 1508 1509 1511 1513 1513 1515 1518 1520 1521 1523 1525 1527 1530 1533 1536 1538 1540 1542 1543 1545 1546 1547 1548 1548 1549 1549 1549 1549 1549 1549 1549 1550 1550 1550 1551 1552 1552 1553 1554 1555 1557
1521 1529 1532 1523 1516 1511 1507 1508 1510 1513 1512 1514 1515 1516 1518 1521 1523 1525 1527 1529 1532 1534 1537 1539 1540 1542 1544 1545 1546 1547 1547 1548 1548 1548 1548 1548 1548 1548 1548 1548 1548 1549 1549 1549 1550 1551 1552 1553 1554
1520 1530 1523 1513 1509 1508 1508 1509 1512 1514 1515 1517 1518 1518 1521 1523 1525 1526 1528 1530 1533 1535 1538 1539 1541 1542 1544 1545 1546 1546 1546 1547 1547 1547 1547 1546 1546 1546 1546 1546 1546 1546 1546 1547 1547 1548 1549 1550 1550
1516 1520 1512 1508 1506 1506 1508 1512 1514 1516 1520 1522 1521 1522 1523 1525 1527 1528 1530 1532 1534 1536 1538 1539 1541 1542 1543 1544 1545 1545 1545 1545 1545 1545 1545 1544 1544 1544 1543 1543 1543 1543 1543 1543 1544 1544 1545 1546 1546
1514 1511 1509 1506 1505 1506 1508 1512 1517 1519 1523 1524 1524 1524 1525 1527 1528 1530 1531 1533 1535 1536 1538 1540 1540 1542 1543 1543 1543 1543 1543 1543 1543 1543 1542 1542 1541 1541 1541 1540 1540 1540 1540 1540 1540 1540 1540 1541 1542
1511 1509 1509 1507 1506 1508 1510 1514 1518 1524 1524 1524 1525 1526 1527 1528 1530 1531 1533 1534 1535 1537 1538 1540 1540 1542 1542 1543 1542 1542 1542 1542 1542 1541 1540 1539 1539 1538 1538 1537 1537 1536 1536 1535 1535 1535 1536 1536 1536
1508 1509 1510 1510 1509 1512 1513 1518 1520 1525 1525 1526 1526 1527 1529 1530 1530 1532 1534 1535 1536 1537 1538 1539 1541 1541 1542 1542 1542 1542 1541 1540 1540 1539 1538 1537 1536 1535 1535 1534 1533 1532 1532 1531 1531 1530 1530 1530 1531
1508 1511 1512 1513 1512 1515 1515 1522 1523 1525 1526 1526 1527 1528 1530 1531 1532 1533 1534 1536 1537 1538 1539 1540 1541 1541 1541 1542 1542 1541 1540 1539 1538 1537 1535 1534 1533 1532 1532 1531 1530 1529 1528 1527 1526 1526 1525 1525 1525
1509 1516 1521 1516 1514 1516 1519 1529 1525 1525 1526 1526 1527 1528 1530 1531 1533 1533 1535 1536 1537 1539 1539 1540 1541 1541 1542 1542 1541 1540 1539 1538 1536 1535 1533 1532 1530 1529 1529 1528 1527 1526 1525 1524 1523 1522 1521 1520 1520
1517 1523 1523 1519 1515 1516 1520 1526 1525 1526 1526 1526 1527 1527 1529 1531 1533 1534 1535 1536 1538 1539 1540 1540 1541 1541 1541 1541 1540 1539 1537 1536 1534 1532 1530 1529 1527 1526 1526 1525 1524 1523 1522 1521 1520 1518 1517 1516 1515
1520 1521 1521 1521 1518 1518 1522 1525 1525 1527 1527 1527 1527 1528 1528 1530 1532 1534 1535 1536 1538 1539 1540 1540 1541 1541 1540 1540 1539 1537 1535 1533 1531 1529 1527 1526 1524 1523 1523 1522 1521 1520 1519 1518 1517 1515 1514 1513 1511
1510 1516 1521 1520 1518 1521 1524 1526 1526 1527 1528 1528 1528 1528 1529 1530 1532 1533 1535 1536 1537 1538 1539 1539 1540 1540 1539 1538 1537 1535 1533 1531 1528 1526 1524 1522 1521 1520 1519 1518 1518 1517 1516 1515 1514 1512 1511 1510 1508
1510 1517 1520 1521 1519 1522 1527 1527 1526 1527 1527 1527 1527 1528 1528 1530 1531 1532 1534 1535 1536 1537 1537 1538 1538 1538 1537 1536 1535 1533 1531 1528 1526 1524 1521 1520 1518 1517 1516 1515 1514 1514 1513 1512 1511 1510 1509 1507 1506
1511 1515 1517 1522 1523 1524 1527 1530 1529 1526 1526 1526 1526 1527 1528 1528 1529 1531 1532 1533 1534 1535 1536 1536 1537 1536 1536 1534 1532 1531 1528 1526 1524 1521 1519 1517 1516 1514 1513 1512 1511 1510 1509 1509 1508 1507 1506 1505 1504
1514 1508 1511 1518 1527 1537 1533 1542 1531 1528 1526 1525 1524 1525 1526 1527 1528 1530 1531 1532 1532 1533 1534 1534 1534 1534 1533 1532 1530 1528 1526 1523 1521 1519 1517 1515 1513 1512 1510 1508 1507 1506 1505 1505 1504 1504 1503 1502 1501
1512 1510 1514 1521 1529 1537 1538 1543 1537 1528 1527 1523 1522 1522 1523 1525 1526 1527 1529 1530 1531 1532 1532 1532 1532 1531 1530 1529 1527 1525 1523 1521 1518 1516 1514 1512 1511 1509 1507 1505 1504 1503 1502 1501 1500 1500 1500 1499 1498
1509 1514 1520 1529 1535 1546 1544 1547 1541 1531 1524 1521 1519 1520 1521 1522 1524 1525 1526 1527 1528 1529 1529 1529 1529 1528 1527 1526 1524 1522 1520 1518 1515 1513 1511 1509 1507 1505 1503 1502 1500 1499 1498 1497 1496 1496 1496 1495 1495
1511 1525 1542 1545 1553 1551 1543 1545 1539 1521 1518 1518 1517 1517 1518 1520 1521 1522 1523 1524 1525 1526 1526 1526 1526 1525 1524 1523 1521 1519 1517 1515 1512 1510 1508 1506 1504 1502 1500 1498 1496 1495 1494 1493 1492 1491 1491 1491 1490
1513 1521 1542 1549 1553 1551 1544 1545 1529 1515 1513 1513 1514 1515 1516 1517 1518 1519 1520 1522 1523 1523 1524 1524 1523 1522 1521 1519 1517 1515 1513 1511 1509 1507 1505 1503 1500 1498 1496 1494 1493 1491 1490 1489 1488 1487 1486 1486 1485
1514 1521 1524 1541 1547 1551 1546 1537 1522 1511 1511 1511 1511 1512 1513 1514 1516 1517 1518 1519 1520 1521 1521 1521 1520 1518 1517 1515 1514 1512 1510 1508 1506 1504 1501 1499 1497 1494 1492 1490 1489 1487 1486 1484 1483 1482 1481 1481 1480
1506 1517 1531 1541 1551 1552 1544 1539 1532 1515 1512 1510 1510 1510 1510 1512 1513 1515 1516 1517 1518 1518 1518 1517 1516 1515 1513 1512 1510 1508 1506 1504 1502 1500 1497 1495 1493 1490 1488 1486 1484 1483 1481 1480 1478 1477 1476 1475 1475
1510 1520 1531 1542 1542 1552 1553 1542 1513 1509 1506 1507 1506 1507 1508 1510 1512 1513 1515 1516 1516 1516 1515 1514 1513 1511 1510 1508 1507 1505 1503 1501 1498 1496 1493 1491 1488 1486 1484 1481 1479 1477 1476 1475 1473 1472 1471 1470 1469
1502 1509 1523 1533 1540 1545 1548 1538 1502 1502 1501 1502 1503 1504 1506 1508 1510 1512 1513 1514 1514 1513 1512 1511 1510 1508 1506 1505 1503 1501 1499 1497 1494 1492 1489 1486 1484 1481 1479 1476 1474 1472 1470 1469 1468 1466 1465 1464 1463